Location: Logan
(41.7360°N, 111.8340°W)
Time: 12:22:41
(UTC-06:00)

Daily predictions for brighter satellites

Satellite Brightness Start Highest point End
(mag) Time Altitude Azimuth Time Altitude Azimuth Time Altitude Azimuth
SL-24 R/B - RUBIN 2 4.3 21:10:56 10° SSW 21:16:19 87° WNW 21:22:29 10° NNE
Cosmos 2285 Rocket 4.1 21:12:24 10° NNW 21:18:43 67° ENE 21:25:01 10° SSE
Cosmos 2233 Rocket 4.4 21:13:06 10° NNW 21:19:20 70° W 21:25:28 10° S
Cosmos 494 Rocket 4.0 21:14:32 10° S 21:19:33 61° ESE 21:24:36 10° NNE
SPOT 5 3.9 21:16:39 10° ESE 21:20:18 26° ENE 21:23:54 10° NNE
YAOGAN 11 4.2 21:18:53 10° SSE 21:23:14 84° WSW 21:27:35 10° NNW
GEOS 3 Rocket 4.1 21:21:33 10° SSE 21:26:46 62° WSW 21:31:58 10° NW
Aureole 2 Rocket 3.0 21:23:49 10° S 21:27:36 45° ESE 21:31:05 10° NNE
Cosmos 1464 Rocket 4.0 21:23:26 10° N 21:29:33 67° E 21:35:40 10° SSE
Lacrosse 5 4.3 21:26:10 10° W 21:30:24 26° NNW 21:34:38 10° NNE
ALOS 3.0 21:26:53 10° S 21:31:27 54° W 21:36:02 10° NNW
deb Chang Zheng 4 3.6 21:27:10 10° NNE 21:31:33 64° ESE 21:35:52 10° S
Cosmos 2237 Rocket 3.8 21:27:45 10° SW 21:33:01 40° WNW 21:38:20 10° N
Cosmos 2278 Rocket 3.8 21:35:27 10° NW 21:40:25 32° WSW 21:45:21 10° SSW
Cosmos 1331 Rocket 4.4 21:38:50 10° NNW 21:43:59 62° WSW 21:49:04 10° S
ATLAS CENTAUR R/B 3.8 21:39:36 10° WSW 21:44:10 35° NW 21:48:49 10° NNE
H-2A R/B 2.2 21:43:37 10° S 21:47:51 79° WSW 21:52:13 10° NNW
Cosmos 2034 Rocket 4.1 21:41:49 10° N 21:48:12 70° E 21:54:29 10° SSE
Atlas Centaur 2 3.8 21:44:40 10° SW 21:51:02 30° SSE 21:58:04 10° ESE
Cosmos 1666 2.7 21:47:13 10° N 21:51:08 87° ENE 21:55:02 10° S
PSLV R/B 3.6 21:48:37 13° SSE 21:51:08 46° ENE 21:54:09 10° N
SeaSat 1 2.7 21:47:09 12° SE 21:51:42 61° ENE 21:56:35 10° NNW
Meteor 1-15 Rocket 4.3 21:47:58 10° N 21:53:36 87° W 21:59:15 10° S
Cosmos 2369 Rocket 3.6 21:49:15 10° N 21:53:57 26° NE 21:58:16 11° ESE
Cosmos 1302 Rocket 4.0 21:48:57 10° NNW 21:54:13 86° WSW 21:59:28 10° SSE
ARGOS 4.2 21:52:04 12° ESE 21:56:11 30° ENE 22:00:50 10° N
Cosmos 1626 Rocket 3.6 21:52:23 10° S 21:56:47 65° E 22:01:10 10° NNE
CZ-4B R/B 4.1 21:53:12 10° NNE 21:57:56 38° E 22:02:45 10° SSE
Cosmos 1939 Rocket 3.0 21:53:55 10° SSE 21:58:05 84° W 22:02:15 10° NNW
SL-16 R/B 3.1 21:55:17 10° SW 22:00:48 52° WNW 22:06:20 10° NNE
Cosmos 2228 3.5 22:02:42 10° NNW 22:07:04 61° W 22:11:24 10° S
Lacrosse 5 rocket 3.7 22:05:06 10° W 22:08:25 25° NNW 22:11:52 10° NNE
COSMOS 2455 3.0 22:04:00 10° S 22:09:46 52° ESE 22:15:35 10° NE
APEX 4.3 22:09:25 10° NW 22:13:25 51° WSW 22:18:07 12° S
MetOp-B 4.2 22:09:21 15° SSE 22:13:49 71° ENE 22:19:10 10° N
BREEZE-M DEB (TANK) 3.5 22:16:39 10° WNW 22:18:37 22° SW 22:19:20 18° SSW
Cosmos 1515 3.9 22:18:53 20° SSE 22:21:16 50° E 22:25:01 10° NNE
Abrixas rocket 3.5 22:19:58 10° WNW 22:23:02 31° SW 22:24:24 22° S
ATLAS 3B R/B 3.4 22:17:15 10° S 22:24:13 39° ESE 22:31:05 10° NE
Envisat 3.5 22:22:53 11° S 22:27:44 57° W 22:32:45 10° NNW
Cosmos 1603 3.8 22:24:03 10° SSW 22:29:40 77° WNW 22:35:17 10° NNE
Cosmos 407 Rocket 4.3 22:29:34 23° SE 22:31:37 31° E 22:36:11 10° NE
Cosmos 1346 Rocket 3.6 22:31:31 28° ESE 22:32:26 31° E 22:35:56 10° NNE
Lacrosse 4 Rocket 2.4 22:35:28 25° ESE 22:35:28 25° ESE 22:38:40 10° NE
Kosmos-1675 4.5 22:36:18 26° ESE 22:36:47 27° E 22:42:40 10° NE
USA 234 3.3 22:33:09 22° SE 22:37:44 88° SW 22:44:22 10° NW
YAOGAN 6 2.6 22:36:50 28° S 22:38:42 83° W 22:42:27 10° NNW
ISS -3.5 22:36:54 10° SW 22:40:08 63° SE 22:43:22 10° ENE
PSLV R/B 3.3 22:37:29 10° WSW 22:40:59 61° SSE 22:42:18 34° E
USA 81 4.0 22:40:22 10° N 22:45:41 79° E 22:48:44 26° S
Cosmos 1758 Rocket 4.0 22:47:14 34° SE 22:48:32 44° E 22:52:42 10° NNE
CZ-4 R/B 3.9 22:46:02 10° NNE 22:51:03 84° ESE 22:54:39 19° SSW
CARTOSAT-1 4.3 22:51:37 31° ESE 22:52:55 39° ENE 22:56:58 10° N
Cosmos 1461 4.5 22:49:37 10° NW 22:53:12 27° WSW 22:55:10 18° SSW
Cosmos 1943 3.1 22:49:01 13° SSW 22:54:04 72° ESE 22:59:46 10° NNE
SPOT 5 4.3 22:54:49 12° SSW 22:58:18 28° W 23:02:04 10° NW
Cosmos 1943 Rocket 3.2 22:57:36 10° N 23:02:38 34° ENE 23:05:02 24° ESE
Landsat 7 3.8 23:02:10 38° SSE 23:03:57 74° ENE 23:08:42 10° N
SAR-Lupe-2 3.7 23:05:05 52° ESE 23:05:29 56° ENE 23:09:01 10° N
Cosmos 1992 Rocket 4.2 23:00:47 10° NNW 23:05:58 65° WSW 23:08:22 31° S
Cosmos 1825 Rocket 3.9 23:03:52 24° SSW 23:06:30 66° W 23:10:56 10° N
SL-08 RB Rocket 3.8 23:05:28 35° S 23:07:19 74° WSW 23:11:53 10° NNW
Cosmos 1766 3.4 23:05:16 10° N 23:09:13 59° E 23:09:49 52° ESE
H-2A R/B 2.0 23:09:27 40° SE 23:11:08 66° ENE 23:16:09 10° N
Terra 1.8 23:18:26 47° SSE 23:19:45 75° ENE 23:24:31 10° N
Geosat 4.0 23:15:47 10° NNE 23:20:50 79° WNW 23:24:33 18° SSW
Cosmos 1190 Rocket 4.2 23:20:42 19° SSW 23:24:32 70° WNW 23:29:52 10° NNE
CZ-4C R/B 4.1 23:24:36 38° SSW 23:25:47 50° W 23:29:49 10° NNW
Nadezhda 4 Rocket 4.3 23:29:34 39° SE 23:31:21 50° E 23:37:27 10° NNE
DMSP B5D2-2 4.0 23:27:22 10° NNE 23:32:41 81° ESE 23:34:23 45° S
ARGOS 4.2 23:33:36 23° SSW 23:36:16 37° W 23:41:18 10° NNW
Cosmos 2369 Rocket 2.7 23:32:47 10° NW 23:38:15 50° WSW 23:40:04 36° SSW
Atlas Centaur 2 3.5 23:32:41 10° WSW 23:40:02 38° S 23:40:54 37° SSE
Cosmos 676 Rocket 4.0 23:38:47 37° SSW 23:40:56 83° WNW 23:46:19 10° NNE
Cosmos 1900 4.4 23:40:59 31° SW 23:43:30 80° WNW 23:48:40 10° NNE
Cosmos 1805 3.5 23:39:45 10° N 23:43:26 59° ENE 23:43:26 59° ENE
Cosmos 1953 2.2 23:41:59 10° N 23:45:51 80° NE 23:45:51 80° NE
Cosmos 1140 Rocket 3.5 23:49:15 57° SE 23:49:40 59° ESE 23:54:49 10° NNE
